This demonstration page uses our WeatherBlox Daily Observations layout. Learn more.

Left ArrowRight Arrow

39.12711, -84.51439

Hourly Observations for November 16, 2020

Temp ( °F °C ) Dew Point ( °F °C ) Humidity (%) Winds ( mph kmh ) Pressure ( in mb ) Visibility ( mi km ) Precip ( " mm )
12:53 am 00:53 Clear 43 6.1 30 -1.1 60 60 SW 8 13 30.12 1020 10 16 0.00 0.00
1:53 am 01:53 Clear 42 5.6 29 -1.7 60 60 SW 9 15 30.14 1021 10 16 0.00 0.00
2:53 am 02:53 Clear 42 5.6 28 -2.2 58 58 SW 12 19 30.15 1021 10 16 0.00 0.00
3:53 am 03:53 Clear 39 3.9 28 -2.2 65 65 SW 8 13 30.16 1021 10 16 0.00 0.00
4:53 am 04:53 Clear 39 3.9 28 -2.2 65 65 SW 7 11 30.16 1022 10 16 0.00 0.00
5:53 am 05:53 Clear 38 3.3 27 -2.8 65 65 SW 9 15 30.19 1023 10 16 0.00 0.00
6:53 am 06:53 Clear 37 2.8 27 -2.8 67 67 SW 7 11 30.20 1023 10 16 0.00 0.00
7:53 am 07:53 Sunny 38 3.3 27 -2.8 65 65 SW 6 9 30.22 1023 10 16 0.00 0.00
8:53 am 08:53 Sunny 42 5.6 28 -2.2 58 58 WSW 8 13 30.24 1024 10 16 0.00 0.00
9:53 am 09:53 Sunny 45 7.2 28 -2.2 52 52 W 14 22 30.26 1025 10 16 0.00 0.00
10:53 am 10:53 Sunny 48 8.9 29 -1.7 48 48 WSW 14 22 30.26 1025 10 16 0.00 0.00
11:53 am 11:53 Sunny 50 10 28 -2.2 43 43 SW 14 22 30.25 1024 10 16 0.00 0.00
12:53 pm 12:53 Sunny 52 11.1 26 -3.3 37 37 W 22 35 30.22 1023 10 16 0.00 0.00
1:53 pm 13:53 Sunny 54 12.2 25 -3.9 33 33 WSW 16 26 30.20 1023 10 16 0.00 0.00
2:53 pm 14:53 Sunny 55 12.8 25 -3.9 31 31 WSW 16 26 30.17 1022 10 16 0.00 0.00
3:53 pm 15:53 Sunny 54 12.2 24 -4.4 31 31 WSW 12 19 30.16 1021 10 16 0.00 0.00
4:53 pm 16:53 Mostly Sunny 51 10.6 25 -3.9 36 36 SW 13 20 30.14 1021 10 16 0.00 0.00
5:53 pm 17:53 Clear 44 6.7 25 -3.9 47 47 S 8 13 30.12 1020 10 16 0.00 0.00
6:53 pm 18:53 Clear 45 7.2 25 -3.9 46 46 SSW 7 11 30.12 1020 10 16 0.00 0.00
7:53 pm 19:53 Clear 43 6.1 26 -3.3 51 51 SSW 8 13 30.12 1020 10 16 0.00 0.00
8:53 pm 20:53 Mostly Clear 41 5 29 -1.7 62 62 SW 6 9 30.12 1020 10 16 0.00 0.00
9:53 pm 21:53 Mostly Cloudy 42 5.6 30 -1.1 62 62 SW 8 13 30.10 1019 10 16 0.00 0.00
10:53 pm 22:53 Cloudy 47 8.3 28 -2.2 48 48 SSW 14 22 30.09 1019 10 16 0.00 0.00
11:53 pm 23:53 Clear 47 8.3 26 -3.3 44 44 SW 12 19 30.09 1019 10 16 0.00 0.00

Powered by AerisWeather